AirNav   TITAN Aviation Fuels
 
 914 users online  

6Y5 Two Hearted Airstrip
Newberry, Michigan, USA

GOING TO NEWBERRY?


FAA INFORMATION EFFECTIVE 27 JANUARY 2022

Location

FAA Identifier: 6Y5
Lat/Long: 46-41-36.0450N 085-25-19.5450W
46-41.600750N 085-25.325750W
46.6933458,-85.4220958
(estimated)
Elevation: 680 ft. / 207 m (estimated)
From city: 20 miles N of NEWBERRY, MI
Time zone: UTC -5 (UTC -4 during Daylight Saving Time)
Zip code: 49768

Airport Operations

Airport use: Open to the public
Activation date: 03/2018
Control tower: no
ARTCC: MINNEAPOLIS CENTER
FSS: GREEN BAY FLIGHT SERVICE STATION
NOTAMs facility: GRB (NOTAM-D service available)
Attendance: 
Segmented circle: no

Airport Communications

CTAF: 122.9

Airport Services

Runway Information

Runway 7/25

Dimensions: 2400 x 75 ft. / 732 x 23 m
Surface: turf, in poor condition
RWY ROUGH & UNEVEN, SOME SOFT AREAS.
RUNWAY 7  RUNWAY 25
Latitude: 46-41.498500N46-41.703000N
Longitude: 085-25.571167W085-25.080333W
Elevation: 678.0 ft.672.0 ft.
Traffic pattern: leftleft
Obstructions: 38 ft. trees, 560 ft. from runway, 14:1 slope to clear25 ft. trees, 64 ft. from runway, 65 ft. right of centerline, 2:1 slope to clear

Airport Ownership and Management from official FAA records

Ownership: Publicly-owned
Owner: STATE OF MICHIGAN DNR
PO BOX 30452
LANSING, MI 48909-7952
Phone 517-284-6367
Manager: JAY HOLLNAGEL
5523 COUNTY ROAD 399
NEWBERRY, MI 49868-7882
Phone 906-291-0570

Additional Remarks

ARPT CLSD NOV-MAY 15 AND WHEN SNOW COVERED EXCP FOR SKI EQUIP ACFT. NO SNOW REMOVAL.
FQT HIGH WINDS OFF LAKE SUPERIOR.
FOR CD CTC MINNEAPOLIS ARTCC AT 651-463-5588.

Instrument Procedures

There are no published instrument procedures at 6Y5.

Some nearby airports with instrument procedures:

KERY - Luce County Airport (23 nm S)
KANJ - Sault Ste Marie Municipal Airport/Sanderson Field (45 nm E)
KCIU - Chippewa County International Airport (47 nm SE)
KISQ - Schoolcraft County Airport (53 nm SW)
83D - Mackinac County Airport (56 nm SE)
 
Loc | Ops | Rwys | IFR | FBO | Links
Com | Nav | Svcs | Stats | Notes
Aerial photo
No photo
 
Airport distance calculator
Flying to Two Hearted Airstrip? Find the distance to fly.

From to 6Y5

Sunrise and sunset
Times for 29-Jan-2022
 Local
(UTC-5)
 Zulu
(UTC)
Morning civil twilight07:3812:38
Sunrise08:1113:11
Sunset17:3922:39
Evening civil twilight18:1223:12

Current date and time
Zulu (UTC)  29-Jan-2022 09:05:06
Local (UTC-5)  29-Jan-2022 04:05:06
 
METAR
KERY 
24nm S 
290855Z AUTO 17003KT 10SM CLR M18/M19 A3014 RMK AO2 T11801188
CYAM 
40nm E 
290800Z 08004KT 20SM FEW031 FEW120 FEW240 M20/M22 A3020 RMK SC1AC1CI1 SC TR FROIN SLP249
CWCI 
41nm NW 
290800Z AUTO 23012KT M06/M12 RMK AO1 PK WND 24020/0744 SLP207 T10551117 56007
KANJ 
46nm E 
290855Z AUTO 07003KT 10SM CLR M19/M23 A3018 RMK AO2 SLP238 I1000 I3000 T11941228 56012
TAF
CYAM 
40nm E 
290740Z 2908/2920 08006KT P6SM FEW030 FM291400 08006KT P6SM SCT020 TEMPO 2914/2918 BKN020 FM291800 11006KT P6SM SCT020 TEMPO 2918/2920 5SM -SHSN BKN020 RMK NXT FCST BY 291400Z
NOTAMs
Click for the latest NOTAMs
NOTAMs are issued by the DoD/FAA and will open in a separate window not controlled by AirNav.

 

 
 

Would you like to see your business listed on this page?

 If your business provides an interesting product or service to pilots, flight crews, aircraft, or users of the Two Hearted Airstrip, you should consider listing it here.  To start the listing process, click on the button below
 
Add a business
 

Other Pages about Two Hearted Airstrip

Page from the Michigan Airport Directory (PDF)
 
Update a link
 
Copyright © AirNav, LLC. All rights reserved. Privacy Policy  Contact